EN

Hourly Weather Bolgatanga

Today, 4 December, Friday

Time Temperature Precipitation Wind Pressure Humidity
00:00 +27°C° 0 mm 2 mps 742 mmHg 18%
01:00 +27°C° 0 mm 2 mps 742 mmHg 18%
02:00 +26°C° 0 mm 2 mps 741 mmHg 18%
03:00 +25°C° 0 mm 1 mps 741 mmHg 18%
04:00 +25°C° 0 mm 1 mps 741 mmHg 18%
05:00 +24°C° 0 mm 1 mps 742 mmHg 18%
06:00 +24°C° 0 mm 1 mps 742 mmHg 18%
07:00 +27°C° 0 mm 1 mps 742 mmHg 16%
08:00 +30°C° 0 mm 2 mps 743 mmHg 14%
09:00 +34°C° 0 mm 2 mps 744 mmHg 12%
10:00 +36°C° 0 mm 2 mps 743 mmHg 11%
11:00 +38°C° 0 mm 2 mps 743 mmHg 10%
12:00 +40°C° 0 mm 3 mps 742 mmHg 9%
13:00 +41°C° 0 mm 2 mps 742 mmHg 8%
14:00 +41°C° 0 mm 2 mps 741 mmHg 8%
15:00 +41°C° 0 mm 2 mps 740 mmHg 8%
16:00 +39°C° 0 mm 2 mps 740 mmHg 9%
17:00 +37°C° 0 mm 2 mps 740 mmHg 11%
18:00 +34°C° 0 mm 2 mps 740 mmHg 12%
19:00 +32°C° 0 mm 1 mps 741 mmHg 13%
20:00 +31°C° 0 mm 1 mps 741 mmHg 14%
21:00 +27°C° 0 mm 0 mps 742 mmHg 15%
22:00 +29°C° 0 mm 1 mps 742 mmHg 16%
23:00 +29°C° 0 mm 1 mps 741 mmHg 16%

Tomorrow, 5 December, Saturday

Time Temperature Precipitation Wind Pressure Humidity
00:00 +28°C° 0 mm 1 mps 741 mmHg 16%
01:00 +28°C° 0 mm 1 mps 741 mmHg 17%
02:00 +27°C° 0 mm 1 mps 740 mmHg 17%
03:00 +26°C° 0 mm 1 mps 740 mmHg 18%
04:00 +26°C° 0 mm 1 mps 740 mmHg 19%
05:00 +25°C° 0 mm 1 mps 741 mmHg 20%
06:00 +25°C° 0 mm 1 mps 741 mmHg 21%
07:00 +27°C° 0 mm 1 mps 742 mmHg 19%
08:00 +30°C° 0 mm 2 mps 742 mmHg 16%
09:00 +34°C° 0 mm 2 mps 743 mmHg 14%
10:00 +36°C° 0 mm 2 mps 742 mmHg 13%
11:00 +38°C° 0 mm 2 mps 742 mmHg 12%
12:00 +40°C° 0 mm 2 mps 741 mmHg 11%
13:00 +41°C° 0 mm 2 mps 741 mmHg 10%
14:00 +41°C° 0 mm 1 mps 740 mmHg 10%
15:00 +41°C° 0 mm 1 mps 739 mmHg 10%
16:00 +39°C° 0 mm 1 mps 739 mmHg 11%
17:00 +36°C° 0 mm 1 mps 739 mmHg 13%
18:00 +33°C° 0 mm 1 mps 739 mmHg 15%
19:00 +32°C° 0 mm 1 mps 740 mmHg 16%
20:00 +29°C° 0 mm 0 mps 740 mmHg 18%
21:00 +28°C° 0 mm 0 mps 741 mmHg 19%
22:00 +27°C° 0 mm 0 mps 741 mmHg 19%
23:00 +27°C° 0 mm 0 mps 741 mmHg 20%

Day after tomorrow, 6 December, Sunday

Time Temperature Precipitation Wind Pressure Humidity
00:00 +27°C° 0 mm 0 mps 740 mmHg 20%
01:00 +28°C° 0 mm 1 mps 740 mmHg 21%
02:00 +28°C° 0 mm 1 mps 740 mmHg 21%
03:00 +27°C° 0 mm 1 mps 740 mmHg 22%
04:00 +27°C° 0 mm 1 mps 740 mmHg 24%
05:00 +26°C° 0 mm 1 mps 740 mmHg 27%
06:00 +25°C° 0 mm 1 mps 741 mmHg 30%
07:00 +27°C° 0 mm 2 mps 741 mmHg 31%
08:00 +29°C° 0 mm 2 mps 742 mmHg 31%
09:00 +33°C° 0 mm 3 mps 743 mmHg 32%
10:00 +35°C° 0 mm 3 mps 742 mmHg 28%
11:00 +37°C° 0 mm 2 mps 742 mmHg 25%
12:00 +39°C° 0 mm 2 mps 741 mmHg 21%
13:00 +40°C° 0 mm 2 mps 740 mmHg 19%
14:00 +41°C° 0 mm 1 mps 740 mmHg 17%
15:00 +41°C° 0 mm 1 mps 739 mmHg 15%
16:00 +39°C° 0 mm 1 mps 739 mmHg 18%
17:00 +36°C° 0 mm 1 mps 739 mmHg 20%
18:00 +32°C° 0 mm 0 mps 739 mmHg 23%
19:00 +31°C° 0 mm 0 mps 740 mmHg 24%
20:00 +30°C° 0 mm 0 mps 740 mmHg 25%
21:00 +29°C° 0 mm 0 mps 741 mmHg 26%
22:00 +28°C° 0 mm 0 mps 741 mmHg 27%
23:00 +28°C° 0 mm 0 mps 741 mmHg 28%

7 December, Monday

Time Temperature Precipitation Wind Pressure Humidity
00:00 +27°C° 0 mm 0 mps 741 mmHg 29%
01:00 +27°C° 0 mm 0 mps 741 mmHg 30%
02:00 +27°C° 0 mm 0 mps 740 mmHg 30%
03:00 +28°C° 0 mm 1 mps 740 mmHg 31%
04:00 +28°C° 0 mm 1 mps 741 mmHg 34%
05:00 +27°C° 0 mm 1 mps 741 mmHg 37%
06:00 +27°C° 0 mm 2 mps 741 mmHg 40%
07:00 +29°C° 0 mm 2 mps 742 mmHg 40%
08:00 +31°C° 0 mm 3 mps 742 mmHg 39%
09:00 +33°C° 0 mm 4 mps 743 mmHg 39%
10:00 +35°C° 0 mm 3 mps 743 mmHg 34%
11:00 +37°C° 0 mm 3 mps 742 mmHg 29%
12:00 +39°C° 0 mm 2 mps 742 mmHg 24%
13:00 +40°C° 0 mm 1 mps 741 mmHg 22%
14:00 +41°C° 0 mm 1 mps 740 mmHg 19%
15:00 +39°C° 0 mm 0 mps 740 mmHg 17%
16:00 +40°C° 0 mm 1 mps 740 mmHg 19%
17:00 +37°C° 0 mm 1 mps 740 mmHg 22%
18:00 +35°C° 0 mm 1 mps 740 mmHg 24%
19:00 +34°C° 0 mm 1 mps 741 mmHg 25%
20:00 +33°C° 0 mm 1 mps 741 mmHg 27%
21:00 +30°C° 0 mm 0 mps 742 mmHg 28%
22:00 +32°C° 0 mm 1 mps 742 mmHg 28%
23:00 +31°C° 0 mm 1 mps 741 mmHg 29%

8 December, Tuesday

Time Temperature Precipitation Wind Pressure Humidity
00:00 +31°C° 0 mm 1 mps 741 mmHg 29%
01:00 +30°C° 0 mm 1 mps 741 mmHg 28%
02:00 +30°C° 0 mm 2 mps 741 mmHg 27%
03:00 +29°C° 0 mm 2 mps 741 mmHg 26%
04:00 +28°C° 0 mm 2 mps 741 mmHg 28%
05:00 +27°C° 0 mm 1 mps 741 mmHg 30%
06:00 +26°C° 0 mm 1 mps 742 mmHg 32%
07:00 +28°C° 0 mm 1 mps 742 mmHg 33%
08:00 +31°C° 0 mm 1 mps 743 mmHg 34%
09:00 +34°C° 0 mm 2 mps 744 mmHg 36%
10:00 +36°C° 0 mm 2 mps 743 mmHg 30%
11:00 +38°C° 0 mm 2 mps 743 mmHg 25%
12:00 +41°C° 0 mm 2 mps 742 mmHg 19%
13:00 +41°C° 0 mm 2 mps 741 mmHg 17%
14:00 +42°C° 0 mm 3 mps 741 mmHg 15%
15:00 +43°C° 0 mm 3 mps 740 mmHg 13%
16:00 +40°C° 0 mm 3 mps 740 mmHg 15%
17:00 +38°C° 0 mm 3 mps 740 mmHg 16%
18:00 +36°C° 0 mm 2 mps 740 mmHg 17%
19:00 +35°C° 0 mm 2 mps 741 mmHg 17%
20:00 +34°C° 0 mm 2 mps 741 mmHg 17%
21:00 +32°C° 0 mm 2 mps 742 mmHg 18%
22:00 +31°C° 0 mm 2 mps 741 mmHg 18%
23:00 +30°C° 0 mm 2 mps 741 mmHg 18%

9 December, Wednesday

Time Temperature Precipitation Wind Pressure Humidity
00:00 +30°C° 0 mm 2 mps 741 mmHg 18%
01:00 +29°C° 0 mm 2 mps 741 mmHg 19%
02:00 +28°C° 0 mm 2 mps 741 mmHg 20%
03:00 +27°C° 0 mm 2 mps 741 mmHg 21%
04:00 +26°C° 0 mm 1 mps 741 mmHg 22%
05:00 +26°C° 0 mm 1 mps 741 mmHg 23%
06:00 +25°C° 0 mm 1 mps 741 mmHg 24%
07:00 +27°C° 0 mm 1 mps 742 mmHg 28%
08:00 +29°C° 0 mm 2 mps 743 mmHg 31%
09:00 +32°C° 0 mm 2 mps 743 mmHg 34%
10:00 +35°C° 0 mm 2 mps 743 mmHg 30%
11:00 +38°C° 0 mm 2 mps 742 mmHg 26%
12:00 +40°C° 0 mm 1 mps 742 mmHg 21%
13:00 +40°C° 0 mm 1 mps 741 mmHg 20%
14:00 +40°C° 0 mm 1 mps 740 mmHg 19%
15:00 +41°C° 0 mm 2 mps 740 mmHg 18%
16:00 +39°C° 0 mm 1 mps 740 mmHg 20%
17:00 +36°C° 0 mm 1 mps 740 mmHg 22%
18:00 +34°C° 0 mm 1 mps 740 mmHg 24%
19:00 +33°C° 0 mm 1 mps 741 mmHg 24%
20:00 +32°C° 0 mm 1 mps 741 mmHg 25%
21:00 +29°C° 0 mm 0 mps 742 mmHg 26%
22:00 +31°C° 0 mm 1 mps 742 mmHg 26%
23:00 +30°C° 0 mm 1 mps 742 mmHg 26%
Show more

We Need Your Consent

Meteoprog and our Service Providers may store and access personal data such as cookies, device identifiers or other similar technologies on your device and process such data to personalise content and ads, as well as provide social media features and to analyse the traffic.

  • Store and/or access information on your device

    Cookies, device identifiers or other information can be stored or accessed on your device for the purposes indicated above.

  • Personalised ads and content, ad and content measurement, audience insights, and products development

    Ads and content can be personalised based on a profile. More data can be added to better personalise ads and content. Ad and content performance can be measured. Insights about the audience who saw the ads and content can be derived. Such data can be used to develop or improve user’s experience, systems and software.

By clicking ‘I Agree’ you will allow the use of indicated cookies, device identifiers, web beacons or other similar technologies. Your settings can be changed in the browser on your device.

For certain purposes, legitimate interests may be relied on, rather than consent. You can read more about this in our Privacy and Cookie Policy.